Monistrol de Calders





Hora UTC 16:50
Temperatura 9.4 ºC
Humedad 79.0 %
Presión 1013.2 hPa
Pluja 0.0 mm
Velocidad viento 0.0 km/h
Dirección viento W

Datos diarios 2021-12-04



Hora UTC (invierno +1h; verano +2h)
Temperatura (ºC) Humedad (%) Presión (hPa) Velocidad viento (km/h) Precipitación (mm)
Hora UTC Aire Humedad Presión Vel. Dir. Vel. Max Dir. Intent. máx 5 min.
00:05 0.9 88.0 1019.7 0.0 SE 0.0 0.0
00:05 0.8 88.0 1019.8 0.0 SE 0.0 0.0
00:10 0.6 88.0 1019.8 0.0 SE 0.0 0.0
00:15 0.6 88.0 1019.8 3.2 SE 6.4 0.0
00:20 0.5 89.0 1019.8 3.2 SE 6.4 0.0
00:25 0.6 89.0 1019.7 0.0 SE 8.0 0.0
00:30 0.6 89.0 1019.7 0.0 SE 6.4 0.0
00:35 0.6 89.0 1019.5 0.0 SE 3.2 0.0
00:40 0.7 89.0 1019.4 0.0 SE 3.2 0.0
00:45 0.7 89.0 1019.4 0.0 SE 3.2 0.0
00:50 0.7 89.0 1019.3 0.0 SE 1.6 0.0
00:55 0.8 89.0 1019.2 0.0 SE 1.6 0.0
01:00 0.8 89.0 1019.2 0.0 SE 0.0 0.0
01:05 1.0 89.0 1019.2 0.0 SE 0.0 0.0
01:10 1.1 90.0 1019.1 0.0 SE 0.0 0.0
01:15 1.2 89.0 1019.0 0.0 SE 0.0 0.0
01:20 1.2 89.0 1019.1 0.0 SE 0.0 0.0
01:25 1.3 89.0 1019.1 0.0 SE 0.0 0.0
01:30 1.3 90.0 1019.0 0.0 SE 0.0 0.0
01:35 1.4 90.0 1019.2 0.0 SE 1.6 0.0
01:45 1.5 89.0 1019.1 0.0 SE 1.6 0.0
01:50 1.6 89.0 1019.1 0.0 SE 3.2 0.0
01:55 1.7 90.0 1019.1 0.0 SE 4.8 0.0
02:00 1.8 90.0 1019.1 0.0 SE 4.8 0.0
02:05 1.9 89.0 1019.1 0.0 SE 4.8 0.0
02:10 2.1 90.0 1019.0 0.0 SE 3.2 0.0
02:15 2.2 89.0 1019.0 0.0 SE 1.6 0.0
02:20 2.2 89.0 1018.9 0.0 SE 0.0 0.0
02:25 2.2 89.0 1018.9 0.0 SE 0.0 0.0
02:25 2.2 89.0 1019.0 0.0 SE 0.0 0.0
02:35 2.3 89.0 1018.8 0.0 SE 0.0 0.0
02:40 2.3 89.0 1018.8 0.0 SE 0.0 0.0
02:45 2.4 89.0 1018.7 0.0 SE 0.0 0.0
02:50 2.4 89.0 1018.6 0.0 SE 0.0 0.0
02:55 2.6 89.0 1018.5 0.0 SE 0.0 0.0
03:00 2.6 89.0 1018.4 0.0 SE 0.0 0.0
03:05 2.6 89.0 1018.5 0.0 SE 0.0 0.0
03:10 2.6 89.0 1018.4 0.0 SE 0.0 0.0
03:15 2.6 89.0 1018.3 0.0 SE 0.0 0.0
03:20 2.7 89.0 1018.2 0.0 SE 0.0 0.0
03:25 2.7 89.0 1018.2 0.0 SE 0.0 0.0
03:30 2.8 89.0 1018.0 0.0 SE 0.0 0.0
03:35 2.8 89.0 1018.0 0.0 SE 0.0 0.0
03:40 2.8 89.0 1018.0 0.0 SE 0.0 0.0
03:45 2.8 89.0 1017.9 0.0 SE 0.0 0.0
03:50 2.8 89.0 1017.9 0.0 SE 0.0 0.0
03:55 2.8 89.0 1017.7 0.0 SE 0.0 0.0
04:00 2.9 89.0 1017.7 0.0 SE 1.6 0.0
04:05 2.9 89.0 1017.8 0.0 SE 1.6 0.0
04:10 3.1 89.0 1017.8 0.0 SE 1.6 0.0
04:15 3.1 89.0 1017.8 0.0 SE 1.6 0.0
04:20 3.1 89.0 1017.8 1.6 SE 3.2 0.0
04:25 3.2 89.0 1017.8 0.0 SE 3.2 0.0
04:30 3.2 89.0 1017.9 0.0 SE 3.2 0.0
04:35 3.2 89.0 1017.7 0.0 SE 3.2 0.0
04:40 3.2 89.0 1017.7 0.0 SE 1.6 0.0
04:45 3.2 89.0 1017.7 0.0 SE 1.6 0.0
04:50 3.2 90.0 1017.7 3.2 ESE 3.2 0.0
04:55 3.5 90.0 1017.6 0.0 ESE 4.8 0.0
05:00 3.7 90.0 1017.7 4.8 SW 4.8 0.0
05:05 4.1 90.0 1017.7 1.6 SW 6.4 0.0
05:10 4.3 90.0 1017.8 0.0 W 6.4 0.0
05:15 4.4 90.0 1017.8 0.0 WNW 6.4 0.0
05:20 4.6 90.0 1017.7 4.8 W 4.8 0.0
05:25 4.9 90.0 1017.9 4.8 E 12.9 0.0
05:30 5.2 90.0 1017.9 3.2 ENE 8.0 0.0
05:35 5.5 90.0 1017.8 3.2 WNW 11.3 0.0
05:40 5.6 90.0 1017.7 3.2 W 14.5 0.0
05:45 5.7 90.0 1017.6 3.2 W 14.5 0.0
05:50 5.7 90.0 1017.8 0.0 W 4.8 0.0
05:55 5.6 89.0 1017.8 0.0 W 3.2 0.0
06:00 5.5 89.0 1017.9 0.0 W 3.2 0.0
06:05 5.3 89.0 1017.8 0.0 W 3.2 0.0
06:10 5.2 89.0 1017.7 0.0 W 0.0 0.0
06:15 5.1 89.0 1017.7 0.0 W 3.2 0.0
06:20 5.1 89.0 1017.8 3.2 W 3.2 0.0
06:25 5.1 89.0 1017.9 0.0 W 3.2 0.0
06:30 5.1 90.0 1017.9 0.0 W 3.2 0.0
06:35 5.1 90.0 1017.7 0.0 W 0.0 0.0
06:40 5.2 90.0 1017.7 0.0 W 0.0 0.0
06:45 5.2 90.0 1017.6 0.0 W 0.0 0.0
06:50 5.2 89.0 1017.6 0.0 W 0.0 0.0
06:55 5.2 90.0 1017.6 0.0 W 3.2 0.0
07:00 5.2 90.0 1017.5 0.0 W 3.2 0.0
07:00 5.2 90.0 1017.5 0.0 W 0.0 0.0
07:05 5.3 90.0 1017.5 0.0 W 1.6 0.0
07:10 5.3 90.0 1017.5 0.0 W 0.0 0.0
07:15 5.3 90.0 1017.4 0.0 W 0.0 0.0
07:20 5.3 90.0 1017.5 0.0 W 3.2 0.0
07:25 5.4 90.0 1017.4 0.0 W 3.2 0.0
07:30 5.5 90.0 1017.4 0.0 W 1.6 0.0
07:35 5.6 90.0 1017.4 0.0 W 1.6 0.0
07:40 5.7 90.0 1017.4 0.0 W 1.6 0.0
07:45 5.7 90.0 1017.3 0.0 W 0.0 0.0
07:50 5.8 90.0 1017.3 0.0 W 0.0 0.0
07:55 5.8 90.0 1017.3 0.0 W 3.2 0.0
08:00 5.9 90.0 1017.3 0.0 W 3.2 0.0
08:05 6.1 90.0 1017.5 0.0 W 6.4 0.0
08:10 6.2 90.0 1017.4 0.0 W 6.4 0.0
08:15 6.2 90.0 1017.4 0.0 W 1.6 0.0
08:20 6.3 90.0 1017.2 0.0 W 12.9 0.0
08:25 6.4 90.0 1017.1 6.4 NE 12.9 0.0
08:30 6.6 89.0 1017.1 0.0 NE 8.0 0.0
08:35 6.6 89.0 1017.0 3.2 E 6.4 0.0
08:45 6.7 89.0 1016.9 0.0 E 4.8 0.0
08:50 6.9 89.0 1016.9 0.0 E 4.8 0.0
08:55 7.1 90.0 1016.8 1.6 WNW 6.4 0.0
09:00 7.3 89.0 1016.7 0.0 WNW 6.4 0.0
09:05 7.5 89.0 1016.7 0.0 WNW 4.8 0.0
09:10 7.7 88.0 1016.6 0.0 NW 6.4 0.0
09:15 7.8 88.0 1016.5 1.6 S 6.4 0.0
09:15 8.0 88.0 1016.7 0.0 S 4.8 0.0
09:25 8.3 87.0 1016.7 0.0 E 6.4 0.0
09:30 8.4 86.0 1016.8 0.0 SSE 8.0 0.0
09:35 8.6 85.0 1016.7 0.0 W 12.9 0.0
09:40 8.7 84.0 1016.6 0.0 ENE 12.9 0.0
09:45 8.9 84.0 1016.5 0.0 E 1.6 0.0
09:50 9.0 82.0 1016.4 0.0 WNW 11.3 0.0
09:55 9.2 83.0 1016.3 0.0 WNW 11.3 0.0
10:00 9.3 82.0 1016.2 0.0 NNE 4.8 0.0
10:05 9.4 80.0 1016.2 3.2 SW 9.7 0.0
10:10 9.6 80.0 1016.1 4.8 SE 9.7 0.0
10:15 9.7 80.0 1016.1 3.2 S 14.5 0.0
10:20 9.8 79.0 1016.0 0.0 W 19.3 0.0
10:25 9.9 78.0 1015.8 8.0 SW 22.5 0.0
10:30 9.9 78.0 1015.9 8.0 WSW 22.5 0.0
10:35 10.0 78.0 1015.8 11.3 S 22.5 0.0
10:40 10.1 77.0 1015.6 3.2 WNW 16.1 0.0
10:45 10.3 77.0 1015.6 4.8 S 16.1 0.0
10:50 10.6 76.0 1015.5 8.0 SE 16.1 0.0
10:55 10.8 75.0 1015.4 4.8 SSW 16.1 0.0
11:00 10.8 74.0 1015.3 6.4 SSE 14.5 0.0
11:05 10.9 74.0 1015.1 4.8 S 14.5 0.0
11:10 11.0 75.0 1015.0 11.3 WNW 14.5 0.0
11:15 11.2 74.0 1014.9 0.0 W 12.9 0.0
11:20 11.4 73.0 1014.8 1.6 ENE 12.9 0.0
11:20 11.5 72.0 1014.8 4.8 ESE 12.9 0.0
11:30 11.7 71.0 1014.6 8.0 S 16.1 0.0
11:30 11.7 71.0 1014.4 9.7 S 16.1 0.0
11:35 11.9 70.0 1014.3 6.4 SW 17.7 0.0
11:40 12.0 69.0 1014.1 16.1 SSW 22.5 0.0
11:45 12.1 70.0 1013.9 4.8 WSW 24.1 0.0
11:50 12.1 70.0 1013.8 4.8 SW 24.1 0.0
11:55 12.3 69.0 1013.9 6.4 WNW 14.5 0.0
12:00 12.4 68.0 1013.7 14.5 WSW 25.7 0.0
12:05 12.5 68.0 1013.7 12.9 W 19.3 0.0
12:10 12.4 68.0 1013.4 0.0 SW 19.3 0.0
12:15 12.5 69.0 1013.5 4.8 E 17.7 0.0
12:20 12.7 68.0 1013.5 0.0 S 17.7 0.0
12:25 12.8 69.0 1013.5 0.0 W 14.5 0.0
12:35 12.9 68.0 1013.5 6.4 SSE 16.1 0.0
12:40 12.8 67.0 1013.6 11.3 WSW 20.9 0.0
12:45 12.6 68.0 1013.5 4.8 SW 20.9 0.0
12:50 12.6 69.0 1013.6 8.0 SSE 16.1 0.0
12:55 12.6 69.0 1013.5 3.2 SSE 11.3 0.0
13:00 12.6 69.0 1013.4 4.8 SSE 8.0 0.0
13:05 12.5 69.0 1013.6 3.2 WSW 8.0 0.0
13:10 12.4 70.0 1013.7 0.0 WSW 4.8 0.0
13:15 12.2 70.0 1013.7 0.0 WSW 3.2 0.0
13:20 12.1 70.0 1013.6 6.4 ENE 6.4 0.0
13:25 11.9 70.0 1013.4 0.0 E 6.4 0.0
13:30 11.8 71.0 1013.5 0.0 E 6.4 0.0
13:35 11.8 72.0 1013.5 0.0 E 0.0 0.0
13:40 11.7 72.0 1013.5 0.0 E 0.0 0.0
13:45 11.6 72.0 1013.6 0.0 E 0.0 0.0
13:50 11.5 72.0 1013.4 0.0 E 0.0 0.0
13:55 11.4 72.0 1013.3 0.0 E 0.0 0.0
14:00 11.3 73.0 1013.3 0.0 E 0.0 0.0
14:05 11.3 73.0 1013.4 0.0 E 0.0 0.0
14:10 11.3 74.0 1013.1 0.0 E 0.0 0.0
14:15 11.2 74.0 1013.3 0.0 E 0.0 0.0
14:20 11.1 74.0 1013.2 0.0 E 0.0 0.0
14:25 11.1 75.0 1013.3 0.0 E 0.0 0.0
14:30 11.0 75.0 1013.2 0.0 E 0.0 0.0
14:35 10.9 76.0 1013.2 0.0 E 3.2 0.0
14:40 10.9 75.0 1013.2 0.0 SW 6.4 0.0
14:45 10.8 75.0 1013.3 0.0 SW 6.4 0.0
14:50 10.8 75.0 1013.3 0.0 SW 4.8 0.0
14:55 10.8 75.0 1013.3 0.0 SW 4.8 0.0
15:00 10.9 75.0 1013.2 0.0 SW 0.0 0.0
15:05 10.8 75.0 1013.1 0.0 SW 0.0 0.0
15:10 10.8 75.0 1013.1 0.0 SW 0.0 0.0
15:15 10.8 75.0 1013.1 0.0 SW 0.0 0.0
15:20 10.8 76.0 1013.1 0.0 SW 0.0 0.0
15:25 10.8 75.0 1013.1 0.0 SW 3.2 0.0
15:30 10.8 76.0 1013.1 0.0 W 4.8 0.0
15:35 10.8 76.0 1013.2 0.0 W 3.2 0.0
15:40 10.8 76.0 1013.3 0.0 W 3.2 0.0
15:45 10.7 76.0 1013.3 0.0 W 1.6 0.0
15:50 10.7 76.0 1013.3 0.0 W 1.6 0.0
15:55 10.7 76.0 1013.4 0.0 W 1.6 0.0
16:00 10.7 76.0 1013.3 0.0 W 0.0 0.0
16:05 10.6 76.0 1013.2 0.0 W 0.0 0.0
16:10 10.5 77.0 1013.3 0.0 W 0.0 0.0
16:15 10.4 77.0 1013.3 0.0 W 0.0 0.0
16:20 10.3 77.0 1013.4 0.0 W 0.0 0.0
16:25 10.3 78.0 1013.4 0.0 W 0.0 0.0
16:30 10.2 78.0 1013.4 0.0 W 0.0 0.0
16:35 10.1 78.0 1013.5 0.0 W 0.0 0.0
16:40 9.9 79.0 1013.3 0.0 W 0.0 0.0
16:45 9.7 78.0 1013.3 0.0 W 0.0 0.0
16:50 9.4 79.0 1013.2 0.0 W 0.0 0.0
Máxima 12.9 90.0 1019.8 16.1 SSW 25.7 0.0
Mínima 0.5 67.0 1013.1
Total 0.0